Regional Weather Roundup
Issued by NWS

Home | Current Version | Previous Version | Text Only | Print | Product List | Glossary Off
Versions: 1 2 3 4 5 6 7 8 9 10 11 12 13 14 15 16 17 18 19 20 21 22 23 24 25 26 27 28 29 30 31 32 33 34 35 36 37 38 39 40 41 42 43 44 45 46 47 48 49 50

000
ASUS43 KLOT 220706
RWRIL

ILLINOIS REGIONAL WEATHER ROUNDUP
NATIONAL WEATHER SERVICE CHICAGO/ROMEOVILLE IL
100 AM CST MON DEC 22 2014

NOTE: "FAIR" INDICATES FEW OR NO CLOUDS BELOW 12,000 FEET WITH NO
SIGNIFICANT WEATHER AND/OR OBSTRUCTIONS TO VISIBILITY.

* THESE STATIONS ARE NOT UNDER NWS QUALITY CONTROL. THEY ALSO MAY NOT
  REPORT WEATHER SUCH AS PRECIPITATION OR FOG.

ILZ001-002-007-009-015-016-024-220800-
NORTHWEST ILLINOIS

CITY           SKY/WX    TMP DP  RH WIND       PRES   REMARKS
MOLINE         CLOUDY    35  31  85 SE12      29.88F WCI  27
STERLING*      CLOUDY    34  28  80 SE10      29.93S WCI  26
SAVANNA*       CLOUDY    35  31  87 SE9       29.91F WCI  28
$$

ILZ003-004-008-010-011-017-018-220800-
NORTH CENTRAL ILLINOIS

CITY           SKY/WX    TMP DP  RH WIND       PRES   REMARKS
ROCKFORD       LGT RAIN  34  29  82 S13       29.96F WCI  25
FREEPORT*      CLOUDY    34  30  86 SE15      29.94F WCI  24
ROCHELLE*      LGT RAIN  32  31  95 S13       29.96S WCI  22
DE KALB*       CLOUDY    31  28  90 SE14      29.96F FOG     WCI  21
PERU*          CLOUDY    34  32  90 SE13      29.96F FOG     WCI  25
$$

ILZ005-006-012>014-019>023-220800-
NORTHEAST ILLINOIS

CITY           SKY/WX    TMP DP  RH WIND       PRES   REMARKS
CHICAGO-OHARE  MOCLDY    32  27  81 S9        29.98F WCI  24
CHICAGO-MIDWAY MOCLDY    34  28  79 SE10      30.00F WCI  26
AURORA         CLOUDY    32  27  81 SE9       29.98F HAZE    WCI  24
LANSING*       MOCLDY    31  27  85 SE9       30.01F FOG     WCI  23
JOLIET*        MOCLDY    31  28  88 SE7       30.00S FOG     WCI  25
WAUKEGAN       CLOUDY    32  27  81 SE10      29.98F WCI  24
DUPAGE AIRPORT MOCLDY    32  27  81 SE9       29.97F WCI  24
KANKAKEE*      MOCLDY    30  28  91 SE6       30.01F WCI  24
WHEELING       MOCLDY    31  26  82 S8        30.00F WCI  23
MORRIS*        CLOUDY    33  31  92 S13       29.98F WCI  24
ROMEOVILLE*    MOCLDY    32  28  88 S15       29.99S FOG     WCI  21
NORTHERLY ISL    N/A     33  28  82 SE12        N/A  WCI  24
$$

LMZ740>746-220800-
SOUTHERN LAKE MICHIGAN

STATION/POSITION SKY/WX   TEMP    WIND        PRES    VSBY  WAVE
                          AIR SEA DIR/SP/G                  HT/PER
                          (F)     (DEG/KT/KT) (MB)    (MI)  (FT/S)
WAUKEGAN HARBOR            34     170/ 19/ 20   N/A
HARRISON CRIB              33     170/ 18/ 21   N/A
BURNHAM HARBOR             33     130/ 11       N/A
CALUMET HARBOR             32     140/  6/ 10 1015.1F
$$

ILZ025>027-034>036-040-047-049-050-058-095>099-220800-
WEST-CENTRAL ILLINOIS

CITY           SKY/WX    TMP DP  RH WIND       PRES   REMARKS
QUINCY         CLOUDY    39  33  79 SE10      29.87F WCI  32
GALESBURG*     CLOUDY    35  32  88 SE9       29.90F WCI  28
MACOMB*        CLOUDY    37  33  87 SE10      29.92F WCI  30
JACKSONVILLE*  CLOUDY    40  33  75 SE12      29.91F
PITTSFIELD*    CLOUDY    40  34  79 SE9       29.90F
$$

ILZ028>032-037-038-041>044-048-051>054-059>061-220800-
CENTRAL ILLINOIS

CITY           SKY/WX    TMP DP  RH WIND       PRES   REMARKS
PONTIAC        CLOUDY    33  31  92 SE13      29.98F WCI  24
BLOOMINGTON    CLOUDY    33  30  89 S12       29.96F WCI  24
DECATUR        CLOUDY    34  29  82 SE10      29.96F WCI  26
PEORIA         CLOUDY    38  30  73 S13       29.94F WCI  30
LACON*         CLOUDY    34  31  86 S6        29.95S WCI  29
LINCOLN*       CLOUDY    37  32  82 SE7       29.96F WCI  32
SPRINGFIELD    CLOUDY    40  30  67 SE16      29.93F
TAYLORVILLE    CLOUDY    36  30  80 SE12      29.95S WCI  27
$$

ILZ033-039-045-046-055>057-062-063-220800-
EAST-CENTRAL ILLINOIS

CITY           SKY/WX    TMP DP  RH WIND       PRES   REMARKS
CHAMPAIGN      CLOUDY    30  27  88 E12       29.97F FOG     WCI  20
DANVILLE*      CLEAR     30  27  90 E5        29.98F WCI  25
RANTOUL*       MOCLDY    32  29  90 SE7       29.98F FOG     WCI  25
MATTOON        CLOUDY    32  28  85 SE10      29.96F WCI  24
PARIS*         PTCLDY    31  29  92 E6        30.01F WCI  25
$$

ILZ079-100>102-220800-
SOUTHWEST ILLINOIS

CITY           SKY/WX    TMP DP  RH WIND       PRES   REMARKS
ALTON          CLOUDY    40  31  72 E7        29.92F
BELLEVILLE     CLOUDY    40  33  76 E5        29.92F
CAHOKIA*       CLOUDY    42  32  67 SE9       29.91F
SPARTA*        CLOUDY    39  31  72 SE10      29.93F WCI  32
$$

ILZ064>066-069>071-074>076-080>082-084>086-088>090-092>094-220800-
SOUTH-CENTRAL ILLINOIS

CITY           SKY/WX    TMP DP  RH WIND       PRES   REMARKS
CARBONDALE     CLOUDY    39  30  70 E8        29.94F WCI  33
CAIRO*         CLOUDY    43  34  71 E3        29.94F
EFFINGHAM*     CLOUDY    35  28  75 E9        29.99S WCI  27
MARION         CLOUDY    39  30  70 E3        29.95F
MT. VERNON     CLOUDY    37  27  65 E7        29.96F WCI  32
CENTRALIA*     CLOUDY    38  29  72 E6        29.95F WCI  33
SALEM*         CLOUDY    39  31  71 SE7       29.96S WCI  34
METROPOLIS*    CLOUDY    40  33  75 CALM      29.94F
$$

ILZ067-068-072-073-078-083-087-091-220800-
SOUTHEAST ILLINOIS

CITY           SKY/WX    TMP DP  RH WIND       PRES   REMARKS
LAWRENCEVILLE  CLOUDY    32  29  88 E5        30.00F FOG     WCI  27
FLORA*         PTCLDY    34  31  86 SE6       29.98F WCI  29
FAIRFIELD*     CLOUDY    37  30  78 E3        29.96F
HARRISBURG*    CLOUDY    37  31  78 E7        29.96F WCI  32
ROBINSON*      CLOUDY    32  29  90 E5        30.01F WCI  27
CARMI*         CLOUDY    37  33  89 E5        29.97F WCI  33
$$

ABBREVIATIONS USED IN REMARKS
   TC - TEMPERATURE IN CELSIUS
  WCI - WIND CHILL INDEX
   HX - HEAT INDEX
  VSB - VISIBILITY
$$



USA.gov is the U.S. government's official web portal to all federal, state and local government web resources and services.